Date String (YYYY-MM-DD hh:mm:ss) UTC,Instrument flags,absolute air pressure of the measurement (hPa),sample flow rate (lpm),inlet stack bypass flow (lpm),air temperature of the measurement (°C),ambient temperature measured by the external sensor (°C),aerosol sample conditioner tube jacket temperature (°C),OPC LED temperature (°C),internal box temperature (°C),relative humidity of the measurement (%),span deviation,mass concentration of particles derived from Lorenz-Mie calculation of OPC scattering (μg/m³),mass concentration of particles derived from Lorenz-Mie calculation of OPC scattering (μg/m³),mass concentration of particles derived from Lorenz-Mie calculation of OPC scattering (μg/m³)
DateTimeUTC,F1_M11,P_M11,Q1_M11,Q2_M11,T1_M11,T2_M11,T3_M11,T4_M11,T5_M11,U1_M11,ZSPAN_M11,X0_M11,X2_M11,X1_M11
2023-12-02 02:00:00,SystemResetWarning,0820.2,5.00,000.00,021.2,020.2,000.0,029.6,022.4,15.7,0003.3,0027.70,0016.66,0015.40
2023-12-02 02:01:00,SystemResetWarning,0820.4,5.00,000.00,021.2,020.2,000.0,029.6,022.3,16.0,0003.3,0027.79,0016.72,0015.47
2023-12-02 02:02:00,SystemResetWarning,0820.2,5.00,000.00,021.2,020.2,000.0,029.6,022.3,15.9,0003.3,0027.86,0016.80,0015.54
2023-12-02 02:03:00,SystemResetWarning,0820.1,5.00,000.00,021.1,020.2,000.0,029.6,022.3,15.9,0003.2,0027.40,0016.89,0015.62
2023-12-02 02:04:00,SystemResetWarning,0820.1,5.01,000.00,021.1,020.2,000.0,029.5,022.3,15.9,0003.0,0028.15,0016.95,0015.69
2023-12-02 02:05:00,SystemResetWarning,0820.1,5.00,000.00,021.1,020.1,000.0,029.5,022.3,16.1,0003.4,0027.83,0016.89,0015.67
2023-12-02 02:06:00,SystemResetWarning,0820.1,4.99,000.00,021.1,020.1,000.0,029.5,022.3,16.2,0003.2,0028.17,0016.85,0015.59
2023-12-02 02:07:00,SystemResetWarning,0820.2,4.99,000.00,021.1,020.1,000.0,029.5,022.3,16.2,0003.1,0027.70,0016.64,0015.38
2023-12-02 02:08:00,SystemResetWarning,0820.2,4.99,000.00,021.1,020.0,000.0,029.5,022.2,16.0,0003.1,0027.32,0016.56,0015.27
2023-12-02 02:09:00,SystemResetWarning,0820.2,5.01,000.00,021.0,020.0,000.0,029.5,022.2,15.8,0002.9,0026.89,0016.52,0015.23
2023-12-02 02:10:00,SystemResetWarning,0820.2,5.01,000.00,021.0,020.0,000.0,029.5,022.2,15.8,0002.8,0026.14,0016.55,0015.23
2023-12-02 02:11:00,SystemResetWarning,0820.2,5.00,000.00,021.0,020.0,000.0,029.4,022.2,15.9,0002.5,0026.03,0016.50,0015.17
2023-12-02 02:12:00,SystemResetWarning,0820.2,4.98,000.00,021.0,020.0,000.0,029.4,022.2,16.1,0001.8,0026.91,0016.37,0015.04
2023-12-02 02:13:00,SystemResetWarning,0820.3,4.99,000.00,021.0,020.0,000.0,029.4,022.2,16.2,0001.1,0027.60,0016.33,0014.96
2023-12-02 02:14:00,SystemResetWarning,0820.1,5.01,000.00,021.0,020.0,000.0,029.4,022.2,16.0,0000.9,0028.26,0016.26,0014.89
2023-12-02 02:15:00,SystemResetWarning,0820.1,5.01,000.00,021.0,020.0,000.0,029.4,022.3,16.0,0000.8,0028.81,0016.24,0014.85
2023-12-02 02:16:00,SystemResetWarning,0820.2,5.01,000.00,021.0,020.0,000.0,029.4,022.3,16.1,0000.9,0028.41,0016.37,0014.94
2023-12-02 02:17:00,SystemResetWarning,0820.2,5.00,000.00,021.0,020.0,000.0,029.4,022.2,16.3,0001.0,0028.01,0016.52,0015.05
2023-12-02 02:18:00,SystemResetWarning,0820.2,4.99,000.00,021.0,020.0,000.0,029.4,022.2,16.3,0001.2,0027.86,0016.73,0015.27
2023-12-02 02:19:00,SystemResetWarning,0820.2,4.99,000.00,021.0,020.0,000.0,029.4,022.2,16.3,0001.5,0027.78,0016.83,0015.41
2023-12-02 02:20:00,SystemResetWarning,0820.2,5.00,000.00,020.9,020.0,000.0,029.4,022.1,16.3,0001.8,0028.39,0016.86,0015.46
2023-12-02 02:21:00,SystemResetWarning,0820.3,5.00,000.00,020.9,019.9,000.0,029.4,022.0,16.3,0002.1,0028.94,0016.89,0015.48
2023-12-02 02:22:00,SystemResetWarning,0820.1,5.00,000.00,020.9,019.9,000.0,029.3,021.9,16.3,0002.4,0029.30,0016.89,0015.54
2023-12-02 02:23:00,SystemResetWarning,0820.0,5.00,000.00,020.8,019.9,000.0,029.3,021.8,16.4,0002.9,0029.53,0016.97,0015.64
2023-12-02 02:24:00,SystemResetWarning,0820.0,5.00,000.00,020.8,019.8,000.0,029.3,021.7,16.4,0003.2,0030.29,0016.97,0015.62
2023-12-02 02:25:00,SystemResetWarning,0820.0,5.00,000.00,020.7,019.8,000.0,029.2,021.7,16.4,0003.2,0029.65,0016.96,0015.59
2023-12-02 02:26:00,SystemResetWarning,0820.0,5.00,000.00,020.7,019.8,000.0,029.2,021.7,16.4,0003.2,0029.05,0016.92,0015.58
2023-12-02 02:27:00,SystemResetWarning,0820.1,5.00,000.00,020.7,019.7,000.0,029.2,021.7,16.4,0003.3,0029.32,0016.79,0015.47
2023-12-02 02:28:00,SystemResetWarning,0820.1,5.00,000.00,020.7,019.7,000.0,029.2,021.7,16.4,0003.3,0029.68,0016.66,0015.39
2023-12-02 02:29:00,SystemResetWarning,0820.1,5.00,000.00,020.6,019.7,000.0,029.2,021.8,16.4,0003.1,0029.56,0016.53,0015.28
2023-12-02 02:30:00,SystemResetWarning,0820.1,5.00,000.00,020.6,019.7,000.0,029.1,021.8,16.4,0003.1,0029.46,0016.46,0015.21
2023-12-02 02:31:00,SystemResetWarning,0820.0,5.00,000.00,020.6,019.7,000.0,029.1,021.8,16.4,0003.0,0029.01,0016.39,0015.13
2023-12-02 02:32:00,SystemResetWarning,0820.0,5.00,000.00,020.6,019.7,000.0,029.1,021.8,16.4,0002.7,0028.23,0016.22,0015.05
2023-12-02 02:33:00,SystemResetWarning,0820.1,5.00,000.00,020.6,019.7,000.0,029.1,021.8,16.4,0002.6,0027.81,0016.22,0014.99
2023-12-02 02:34:00,SystemResetWarning,0820.1,4.99,000.00,020.6,019.7,000.0,029.1,021.8,16.4,0002.4,0026.68,0016.18,0014.95
2023-12-02 02:35:00,SystemResetWarning,0820.1,5.00,000.00,020.6,019.7,000.0,029.1,021.9,16.5,0002.3,0026.00,0016.21,0014.96
2023-12-02 02:36:00,SystemResetWarning,0820.1,5.00,000.00,020.6,019.7,000.0,029.1,021.9,16.5,0002.7,0026.51,0016.25,0015.01
2023-12-02 02:37:00,SystemResetWarning,0820.2,5.00,000.00,020.6,019.7,000.0,029.1,021.8,16.5,0002.9,0026.43,0016.27,0014.98
2023-12-02 02:38:00,SystemResetWarning,0820.2,5.00,000.00,020.6,019.7,000.0,029.1,021.8,16.4,0003.5,0025.57,0016.31,0015.00
2023-12-02 02:39:00,SystemResetWarning,0820.2,5.00,000.00,020.6,019.6,000.0,029.0,021.8,16.1,0003.4,0025.28,0016.40,0015.02
2023-12-02 02:40:00,SystemResetWarning,0820.2,5.00,000.00,020.6,019.6,000.0,029.0,021.8,16.0,0003.7,0025.20,0016.49,0015.08
2023-12-02 02:41:00,SystemResetWarning,0820.2,5.00,000.00,020.6,019.6,000.0,029.0,021.8,15.9,0003.6,0025.19,0016.52,0015.11
2023-12-02 02:42:00,SystemResetWarning,0820.2,5.01,000.00,020.6,019.7,000.0,029.0,021.9,16.0,0003.7,0025.63,0016.61,0015.15
2023-12-02 02:43:00,SystemResetWarning,0820.3,5.00,000.00,020.6,019.7,000.0,029.0,021.9,16.0,0003.2,0026.42,0016.68,0015.18
2023-12-02 02:44:00,SystemResetWarning,0820.3,5.00,000.00,020.6,019.7,000.0,029.0,021.9,16.2,0003.3,0026.45,0016.71,0015.18
2023-12-02 02:45:00,SystemResetWarning,0820.3,5.00,000.00,020.6,019.7,000.0,029.0,021.9,16.4,0003.4,0026.24,0016.76,0015.21
2023-12-02 02:46:00,SystemResetWarning,0820.3,5.00,000.00,020.6,019.7,000.0,029.0,021.9,16.4,0003.6,0026.51,0016.84,0015.30
2023-12-02 02:47:00,SystemResetWarning,0820.3,5.00,000.00,020.6,019.7,000.0,029.0,021.9,16.4,0003.3,0025.68,0016.87,0015.37
2023-12-02 02:48:00,SystemResetWarning,0820.3,5.00,000.00,020.6,019.7,000.0,029.0,021.9,16.4,0002.7,0025.13,0016.89,0015.44
2023-12-02 02:49:00,SystemResetWarning,0820.3,5.00,000.00,020.7,019.7,000.0,029.0,021.9,16.5,0002.1,0025.70,0016.89,0015.47
2023-12-02 02:50:00,SystemResetWarning,0820.2,4.99,000.00,020.7,019.7,000.0,029.0,022.0,16.5,0002.0,0025.65,0016.86,0015.45
2023-12-02 02:51:00,SystemResetWarning,0820.1,4.99,000.00,020.7,019.7,000.0,029.0,021.9,16.5,0001.9,0026.87,0016.81,0015.43
2023-12-02 02:52:00,SystemResetWarning,0820.1,5.00,000.00,020.7,019.7,000.0,029.0,022.0,16.5,0001.8,0027.02,0016.79,0015.40
2023-12-02 02:53:00,SystemResetWarning,0820.3,5.00,000.00,020.7,019.7,000.0,029.0,022.0,16.5,0001.6,0027.03,0016.73,0015.38
2023-12-02 02:54:00,SystemResetWarning,0820.3,5.00,000.00,020.7,019.7,000.0,029.0,022.0,16.5,0001.5,0026.90,0016.66,0015.36
2023-12-02 02:55:00,SystemResetWarning,0820.3,5.00,000.00,020.7,019.7,000.0,029.0,021.9,16.6,0001.4,0027.08,0016.58,0015.32
2023-12-02 02:56:00,SystemResetWarning,0820.4,5.01,000.00,020.7,019.7,000.0,029.0,021.9,16.5,0001.3,0027.12,0016.50,0015.25
2023-12-02 02:57:00,SystemResetWarning,0820.4,5.00,000.00,020.7,019.7,000.0,029.0,021.9,16.3,0001.3,0026.71,0016.40,0015.16
2023-12-02 02:58:00,SystemResetWarning,0820.4,5.00,000.00,020.7,019.7,000.0,029.0,021.9,16.4,0001.3,0027.13,0016.29,0015.06
2023-12-02 02:59:00,SystemResetWarning,0820.3,5.00,000.00,020.7,019.7,000.0,029.0,021.9,16.6,0001.8,0028.26,0016.21,0014.94
